星链-1712 (STARLINK-1712 )

导读 | 星芒AI

STARLINK-1712 是 SpaceX Starlink 项目中的一颗低轨通信卫星,属于第 5 批(v1.5)Starlink 卫星群。该卫星于 2022 年 10 月 23 日由猎鹰 9 号火箭从肯尼迪航天中心发射升空,旨在为全球用户提供高速互联网服务。它运行在约 550 公里的轨道高度,配备先进的相控阵天线和激光通信系统,以提升网络连接的稳定性和效率。作为 Starlink 网络的一部分,STARLINK-1712 支持偏远地区的宽带接入,并增强整体星座的冗余与覆盖能力。

基本信息
目录编号:
46581
目录名称:
STARLINK-1712
国际标识:
2020-070BB
轨道中心:
EARTH
卫星名称:
星链-1712
卫星全名:
星链-1712 (STARLINK-1712 )
卫星状态:
在轨 (已飞行1897 天)
发射日期:
2020-10-06 UTC
国别 :
美国 (US)
星等 :
--
轨道信息
数据来源 国际轨道数据
星历时间: 2025-12-16T08:00:03+0800
8小时前
查看轨道信息
半长轴: 6783.288km
偏心率: 0.0002679
轨道倾角: 53.045°
近地点辐角 326.140°
升交点赤经 135.989°
平近点角 113.640°
近地点: 403.335km
远地点: 406.971km
周期: 92.666分钟
每日圈数: 15.539691
详细信息
固有亮度:
5
最大亮度:
2.5
卫星平台:
Starlink V1.0
覆盖范围:
全球
运营商:
太空探索技术公司
运营商所在国:
美国
制造商(研发单位):
太空探索技术公司
制造商所在国:
美国
使用方式:
暂无
卫星简介
星链(Starlink)计划是由太空探索技术公司(SpaceX)提出的一个巨型低轨卫星互联网星座项目,计划在2019年至2024年间在太空搭建由约1.2万颗卫星组成的“星链”网络,其中1584颗将部署在地球上空550千米处的近地轨道,并从2020年开始工作。该卫星仍在工作。
2D轨道图
3D轨道图
轨道高度分析图
轨道倾角分析图
轨道综合分析图
查看轨道综合分析图